Paradise — 3FOB5 — position and weather

sailwx.info

Track history (hours):
 
Tides and Currents Weather Stations Pressure Air Temp Water Temp Dewpoint Dewpoint Depression Visibility Wind Speed Wind Dir Waves Ship Positions

Paradise

Operator: Carnival Cruise Lines

Last reported at 2018-May-24 22:57 UTC. Time now 2018-May-27 08:12 UTC.
Position N 20°42' W 086°51'.

Type: Passenger vessel. MMSI: 355833000.

Date/timePositionNaut miles runAvg speedWind from/ knotsBaromVisibWave heightAir tempDewpointWater temp
2018-May-24 22:57N 20°42' W 086°51'715.5
2018-May-24 22:30N 20°36' W 086°55'714.3
2018-May-24 22:00N 20°30' W 086°59'1 2.0
2018-May-24 21:28N 20°29' W 086°59'0 0.0
2018-May-24 20:58N 20°29' W 086°59'0 0.0
2018-May-24 20:28N 20°29' W 086°59'0 0.0
2018-May-24 19:58N 20°29' W 086°59'0 0.0
2018-May-24 19:28N 20°29' W 086°59'0 0.0
2018-May-24 18:58N 20°29' W 086°59'0 0.0
2018-May-24 18:28N 20°29' W 086°59'0 0.0
2018-May-24 17:58N 20°29' W 086°59'0 0.0
2018-May-24 17:28N 20°29' W 086°59'0 0.0
2018-May-24 16:58N 20°29' W 086°59'0 0.0
2018-May-24 16:28N 20°29' W 086°59'0 0.0
2018-May-24 15:55N 20°29' W 086°59'0 0.0
2018-May-24 15:28N 20°29' W 086°59'0 0.0
2018-May-24 14:58N 20°29' W 086°59'0 0.0
2018-May-24 14:28N 20°29' W 086°59'0 0.0
2018-May-24 13:58N 20°29' W 086°59'0 0.0
2018-May-24 13:28N 20°29' W 086°59'  
2018-May-19 23:46N 20°42' W 086°51'414.3
2018-May-19 23:30N 20°39' W 086°53'714.4
2018-May-19 23:00N 20°33' W 086°57'5 9.0
2018-May-19 22:30N 20°29' W 086°59'0 0.2
2018-May-19 21:59N 20°29' W 086°59'0 0.0
2018-May-19 21:29N 20°29' W 086°59'0 0.0
2018-May-19 20:59N 20°29' W 086°59'0 0.0
2018-May-19 20:29N 20°29' W 086°59'0 0.0
2018-May-19 19:56N 20°29' W 086°59'0 0.0
2018-May-19 19:29N 20°29' W 086°59'0 0.0
2018-May-19 18:59N 20°29' W 086°59'0 0.0
2018-May-19 18:29N 20°29' W 086°59'0 0.0
2018-May-19 17:59N 20°29' W 086°59'0 0.0
2018-May-19 12:26N 20°29' W 086°59'0 0.0
2018-May-19 11:56N 20°29' W 086°59'0 0.0
2018-May-19 11:29N 20°29' W 086°59'2 3.8
2018-May-19 11:00N 20°30' W 086°59'510.3
2018-May-19 10:30N 20°35' W 086°56'38913.6
2018-May-18 06:00N 26°18' W 083°36'303 6.4 120 / 151013.0 23.020.127.0
2018-May-16 07:00N 21°48' W 086°06'8216.8 120 / 151012.010.8 26.023.227.0
2018-May-16 02:06N 20°39' W 086°53'216.1
2018-May-16 02:00N 20°38' W 086°55'815.1
2018-May-16 01:30N 20°32' W 086°59'3 6.3
2018-May-16 00:59N 20°29' W 086°59'0 0.0
2018-May-16 00:29N 20°29' W 086°59'0 0.0
2018-May-15 23:59N 20°29' W 086°59'0 0.0
2018-May-15 23:29N 20°29' W 086°59'0 0.0
2018-May-15 22:59N 20°29' W 086°59'0 0.0
2018-May-15 22:29N 20°29' W 086°59'0 0.0
2018-May-15 21:56N 20°29' W 086°59'0 0.0
2018-May-15 21:29N 20°29' W 086°59'0 0.0
2018-May-15 20:59N 20°29' W 086°59'0 0.0
2018-May-15 20:29N 20°29' W 086°59'0 0.0
2018-May-15 19:59N 20°29' W 086°59'0 0.0
2018-May-15 19:26N 20°29' W 086°59'0 0.0
2018-May-15 18:59N 20°29' W 086°59'0 0.0
2018-May-15 18:29N 20°29' W 086°59'0 0.0
2018-May-15 17:53N 20°29' W 086°59'0 0.0
2018-May-15 17:29N 20°29' W 086°59'0 0.0
2018-May-15 16:59N 20°29' W 086°59'0 0.0
2018-May-15 16:26N 20°29' W 086°59'0 0.0
2018-May-15 15:59N 20°29' W 086°59'0 0.0
2018-May-15 15:26N 20°29' W 086°59'2 4.5
2018-May-15 15:00N 20°30' W 086°60'713.0
2018-May-15 14:30N 20°26' W 087°05'8719.2
2018-May-15 10:00N 19°00' W 086°54'7919.7 130 / 141010.010.8 28.023.927.0
2018-May-15 06:00N 17°42' W 086°42'   120 / 251011.010.8 27.024.327.0
Track history (hours):
 
Tides and Currents Weather Stations Pressure Air Temp Water Temp Dewpoint Dewpoint Depression Visibility Wind Speed Wind Dir Waves Ship Positions

Paradise

Operator: Carnival Cruise Lines

Last reported at 2018-May-24 22:57 UTC. Time now 2018-May-27 08:12 UTC.
Position N 20°42' W 086°51'.

Type: Passenger vessel. MMSI: 355833000.

Date/timePositionNaut miles runAvg speedWind from/ knotsBaromVisibWave heightAir tempDewpointWater temp
2018-May-24 22:57N 20°42' W 086°51'715.5
2018-May-24 22:30N 20°36' W 086°55'714.3
2018-May-24 22:00N 20°30' W 086°59'1 2.0
2018-May-24 21:28N 20°29' W 086°59'0 0.0
2018-May-24 20:58N 20°29' W 086°59'0 0.0
2018-May-24 20:28N 20°29' W 086°59'0 0.0
2018-May-24 19:58N 20°29' W 086°59'0 0.0
2018-May-24 19:28N 20°29' W 086°59'0 0.0
2018-May-24 18:58N 20°29' W 086°59'0 0.0
2018-May-24 18:28N 20°29' W 086°59'0 0.0
2018-May-24 17:58N 20°29' W 086°59'0 0.0
2018-May-24 17:28N 20°29' W 086°59'0 0.0
2018-May-24 16:58N 20°29' W 086°59'0 0.0
2018-May-24 16:28N 20°29' W 086°59'0 0.0
2018-May-24 15:55N 20°29' W 086°59'0 0.0
2018-May-24 15:28N 20°29' W 086°59'0 0.0
2018-May-24 14:58N 20°29' W 086°59'0 0.0
2018-May-24 14:28N 20°29' W 086°59'0 0.0
2018-May-24 13:58N 20°29' W 086°59'0 0.0
2018-May-24 13:28N 20°29' W 086°59'  
2018-May-19 23:46N 20°42' W 086°51'414.3
2018-May-19 23:30N 20°39' W 086°53'714.4
2018-May-19 23:00N 20°33' W 086°57'5 9.0
2018-May-19 22:30N 20°29' W 086°59'0 0.2
2018-May-19 21:59N 20°29' W 086°59'0 0.0
2018-May-19 21:29N 20°29' W 086°59'0 0.0
2018-May-19 20:59N 20°29' W 086°59'0 0.0
2018-May-19 20:29N 20°29' W 086°59'0 0.0
2018-May-19 19:56N 20°29' W 086°59'0 0.0
2018-May-19 19:29N 20°29' W 086°59'0 0.0
2018-May-19 18:59N 20°29' W 086°59'0 0.0
2018-May-19 18:29N 20°29' W 086°59'0 0.0
2018-May-19 17:59N 20°29' W 086°59'0 0.0
2018-May-19 12:26N 20°29' W 086°59'0 0.0
2018-May-19 11:56N 20°29' W 086°59'0 0.0
2018-May-19 11:29N 20°29' W 086°59'2 3.8
2018-May-19 11:00N 20°30' W 086°59'510.3
2018-May-19 10:30N 20°35' W 086°56'38913.6
2018-May-18 06:00N 26°18' W 083°36'303 6.4 120 / 151013.0 23.020.127.0
2018-May-16 07:00N 21°48' W 086°06'8216.8 120 / 151012.010.8 26.023.227.0
2018-May-16 02:06N 20°39' W 086°53'216.1
2018-May-16 02:00N 20°38' W 086°55'815.1
2018-May-16 01:30N 20°32' W 086°59'3 6.3
2018-May-16 00:59N 20°29' W 086°59'0 0.0
2018-May-16 00:29N 20°29' W 086°59'0 0.0
2018-May-15 23:59N 20°29' W 086°59'0 0.0
2018-May-15 23:29N 20°29' W 086°59'0 0.0
2018-May-15 22:59N 20°29' W 086°59'0 0.0
2018-May-15 22:29N 20°29' W 086°59'0 0.0
2018-May-15 21:56N 20°29' W 086°59'0 0.0
2018-May-15 21:29N 20°29' W 086°59'0 0.0
2018-May-15 20:59N 20°29' W 086°59'0 0.0
2018-May-15 20:29N 20°29' W 086°59'0 0.0
2018-May-15 19:59N 20°29' W 086°59'0 0.0
2018-May-15 19:26N 20°29' W 086°59'0 0.0
2018-May-15 18:59N 20°29' W 086°59'0 0.0
2018-May-15 18:29N 20°29' W 086°59'0 0.0
2018-May-15 17:53N 20°29' W 086°59'0 0.0
2018-May-15 17:29N 20°29' W 086°59'0 0.0
2018-May-15 16:59N 20°29' W 086°59'0 0.0
2018-May-15 16:26N 20°29' W 086°59'0 0.0
2018-May-15 15:59N 20°29' W 086°59'0 0.0
2018-May-15 15:26N 20°29' W 086°59'2 4.5
2018-May-15 15:00N 20°30' W 086°60'713.0
2018-May-15 14:30N 20°26' W 087°05'8719.2
2018-May-15 10:00N 19°00' W 086°54'7919.7 130 / 141010.010.8 28.023.927.0
2018-May-15 06:00N 17°42' W 086°42'   120 / 251011.010.8 27.024.327.0

Dump ship's entire track history